Weather History for Valparaiso, IN

Change the Weather History Date:

Saturday, April 5, 2014

  Actual Average Record
Temperature  
Mean Temperature 38 °F 45 °F  
Max Temperature 47 °F 55 °F 75 °F (2005)
Min Temperature 29 °F 35 °F 24 °F (2007)
Degree Days  
Heating Degree Days 27 20  
Month to date heating degree days 120 103  
Since 1 July heating degree days 6569 5680  
Cooling Degree Days 0 0  
Month to date cooling degree days 0 0  
Year to date cooling degree days 0 0  
Moisture  
Dew Point 21 °F    
Average Humidity 54    
Maximum Humidity 79    
Minimum Humidity 25    
Precipitation  
Precipitation 0.00 in 0.09 in 1.68 in (2007)
Month to date precipitation 1.53 0.46  
Year to date precipitation 4.95 6.11  
Sea Level Pressure  
Sea Level Pressure 30.17 in    
Wind  
Wind Speed 5 mph (NNW)    
Max Wind Speed 20 mph    
Max Gust Speed 26 mph    
Visibility 10 miles    
Events      
T = Trace of Precipitation, MM = Missing Value Source: NWS Daily Summary

Daily Weather History Graph

Daily Weather History Graph

Search for Another Location

Airport:

Trip Planner

Search our weather history database for the weather conditions in past years. The results will help you decide how hot, cold, wet, or windy it might be!

Date:

Astronomy

Apr. 05, 2014 Rise Set
Actual Time 6:24 AM CDT 7:17 PM CDT
Civil Twilight 5:56 AM CDT 7:45 PM CDT
Nautical Twilight 5:22 AM CDT 8:19 PM CDT
Astronomical Twilight 4:48 AM CDT 8:54 PM CDT
Moon 10:29 AM CDT (4/5) 12:29 AM CDT (4/5)
Length of Visible Light 13h 49m
Length of Day
12h 53m
Waxing Crescent, 34% of the Moon is Illuminated
Apr 5
Waxing Crescent
Apr 7
First Quarter
Apr 15
Full
Apr 22
Last Quarter
Apr 29
New

Hourly Weather History & Observations

Time (CDT) Temp. Windchill Dew Point Humidity Pressure Visibility Wind Dir Wind Speed Gust Speed Precip Events Conditions
12:53 AM 34.0 °F 23.4 °F 24.1 °F 67% 30.03 in 10.0 mi NW 17.3 mph 25.3 mph N/A   Overcast
1:53 AM 33.1 °F 24.4 °F 23.0 °F 66% 30.05 in 10.0 mi NW 11.5 mph - N/A   Overcast
2:53 AM 33.1 °F 25.5 °F 23.0 °F 66% 30.07 in 10.0 mi NNW 9.2 mph - N/A   Clear
3:53 AM 33.1 °F 26.9 °F 25.0 °F 72% 30.09 in 10.0 mi NW 6.9 mph - N/A   Overcast
4:53 AM 33.1 °F 28.7 °F 25.0 °F 72% 30.11 in 10.0 mi NNW 4.6 mph - N/A   Overcast
5:53 AM 32.0 °F 27.5 °F 26.1 °F 79% 30.13 in 10.0 mi WSW 4.6 mph - N/A   Overcast
6:53 AM 33.1 °F 26.9 °F 26.1 °F 75% 30.15 in 10.0 mi West 6.9 mph - N/A   Overcast
7:53 AM 34.0 °F 28.0 °F 26.1 °F 73% 30.18 in 10.0 mi NW 6.9 mph - N/A   Overcast
8:49 AM 35.6 °F 28.0 °F 24.8 °F 65% 30.17 in 10.0 mi NW 10.4 mph - N/A   Mostly Cloudy
8:53 AM 35.1 °F 27.9 °F 24.1 °F 64% 30.20 in 10.0 mi NW 9.2 mph - N/A   Mostly Cloudy
9:14 AM 37.0 °F 30.4 °F 25.0 °F 62% 30.18 in 10.0 mi WNW 9.2 mph - N/A   Scattered Clouds
9:53 AM 39.0 °F 32.8 °F 26.1 °F 60% 30.21 in 10.0 mi NNW 9.2 mph - N/A   Partly Cloudy
10:53 AM 39.9 °F - 21.9 °F 49% 30.23 in 10.0 mi Calm Calm - N/A   Clear
11:53 AM 42.1 °F - 19.9 °F 41% 30.22 in 10.0 mi Calm Calm - N/A   Clear
12:53 PM 44.1 °F 40.1 °F 19.0 °F 37% 30.22 in 10.0 mi NNE 6.9 mph - N/A   Clear
1:53 PM 45.0 °F 40.6 °F 16.0 °F 31% 30.22 in 10.0 mi NW 8.1 mph - N/A   Clear
2:53 PM 45.0 °F 43.5 °F 14.0 °F 29% 30.22 in 10.0 mi Variable 3.5 mph - N/A   Clear
3:53 PM 46.0 °F 42.5 °F 12.9 °F 26% 30.20 in 10.0 mi Variable 6.9 mph - N/A   Clear
4:53 PM 46.9 °F - 12.9 °F 25% 30.19 in 10.0 mi NE 6.9 mph - N/A   Clear
5:53 PM 46.0 °F 43.9 °F 12.9 °F 26% 30.19 in 10.0 mi ENE 4.6 mph - N/A   Clear
6:53 PM 43.0 °F 40.3 °F 15.1 °F 32% 30.19 in 10.0 mi ESE 4.6 mph - N/A   Clear
7:53 PM 37.9 °F 32.7 °F 17.1 °F 43% 30.20 in 10.0 mi ESE 6.9 mph - N/A   Clear
8:53 PM 37.0 °F 34.5 °F 19.0 °F 48% 30.21 in 10.0 mi ESE 3.5 mph - N/A   Clear
9:53 PM 32.0 °F 27.5 °F 19.9 °F 61% 30.21 in 10.0 mi East 4.6 mph - N/A   Clear
10:53 PM 32.0 °F 28.7 °F 19.9 °F 61% 30.20 in 10.0 mi East 3.5 mph - N/A   Clear
11:53 PM 28.9 °F - 19.9 °F 69% 30.21 in 10.0 mi Calm Calm - N/A   Clear